Time,TemperatureF,DewpointF,PressureIn,WindDirection,WindDirectionDegrees,WindSpeedMPH,WindSpeedGustMPH,Humidity,HourlyPrecipIn,Conditions,Clouds,dailyrainin,SolarRadiationWatts/m^2,SoftwareType,DateUTC
2013-10-01 00:00:00,63.8,62.1,29.64,South,186,0.0,1.0,94,0.00,RA,FEW,0.00,0.0,WeatherDisplay:10.37,2013-09-30 22:00:00,
2013-10-01 00:30:00,63.8,62.0,29.64,South,186,0.0,2.0,94,0.00,CLR,FEW,0.00,0.0,WeatherDisplay:10.37,2013-09-30 22:30:00,
2013-10-01 01:00:00,63.5,62.1,29.64,SW,215,0.0,3.0,95,0.00,CLR,FEW,0.00,0.0,WeatherDisplay:10.37,2013-09-30 23:00:00,
2013-10-01 01:30:00,63.1,61.3,29.65,SW,215,0.0,1.0,94,0.00,CLR,FEW,0.00,0.0,WeatherDisplay:10.37,2013-09-30 23:30:00,
2013-10-01 02:00:00,62.8,61.4,29.65,SW,215,0.0,0.0,95,0.00,CLR,FEW,0.00,0.0,WeatherDisplay:10.37,2013-10-01 00:00:00,
2013-10-01 02:30:00,61.6,59.9,29.65,SW,215,0.0,0.0,94,0.00,CLR,FEW,0.00,0.0,WeatherDisplay:10.37,2013-10-01 00:30:00,
2013-10-01 03:30:00,60.7,59.3,29.64,SW,215,0.0,0.0,95,0.00,CLR,FEW,0.00,0.0,WeatherDisplay:10.37,2013-10-01 01:30:00,
2013-10-01 04:00:00,60.3,58.9,29.64,SSW,213,0.0,2.0,95,0.00,CLR,FEW,0.00,0.0,WeatherDisplay:10.37,2013-10-01 02:00:00,
2013-10-01 04:30:00,59.4,58.0,29.64,East,97,0.0,4.0,95,0.00,CLR,FEW,0.00,0.0,WeatherDisplay:10.37,2013-10-01 02:30:00,
2013-10-01 05:00:00,59.1,57.4,29.64,NE,54,0.0,6.0,94,0.00,CLR,FEW,0.00,0.0,WeatherDisplay:10.37,2013-10-01 03:00:00,
2013-10-01 05:30:00,58.9,56.6,29.65,NE,46,0.0,4.0,92,0.00,CLR,FEW,0.00,0.0,WeatherDisplay:10.37,2013-10-01 03:30:00,
2013-10-01 06:00:00,58.8,56.2,29.66,NE,42,1.0,5.0,91,0.00,CLR,FEW,0.00,0.0,WeatherDisplay:10.37,2013-10-01 04:00:00,
2013-10-01 06:30:00,58.7,55.8,29.66,NE,43,2.0,5.0,90,0.00,OVC,FEW,0.00,0.0,WeatherDisplay:10.37,2013-10-01 04:30:00,
2013-10-01 07:00:00,58.5,55.3,29.66,NE,43,3.0,6.0,89,0.00,OVC,FEW,0.00,0.0,WeatherDisplay:10.37,2013-10-01 05:00:00,
2013-10-01 07:30:00,58.8,55.6,29.67,NE,41,0.0,6.0,89,0.00,OVC,FEW,0.00,14.0,WeatherDisplay:10.37,2013-10-01 05:30:00,
2013-10-01 08:00:00,58.8,55.6,29.68,NE,40,0.0,4.0,89,0.00,OVC,FEW,0.00,28.0,WeatherDisplay:10.37,2013-10-01 06:00:00,
2013-10-01 08:30:00,58.8,55.9,29.68,NE,40,0.0,1.0,90,0.00,BKN,FEW,0.00,221.0,WeatherDisplay:10.37,2013-10-01 06:30:00,
2013-10-01 09:30:00,65.2,60.2,29.69,ENE,61,1.0,8.0,84,0.00,SCT,FEW,0.00,406.0,WeatherDisplay:10.37,2013-10-01 07:30:00,
2013-10-01 10:00:00,66.9,60.5,29.71,SE,133,2.0,8.0,80,0.00,SCT,FEW,0.00,497.0,WeatherDisplay:10.37,2013-10-01 08:00:00,
2013-10-01 10:30:00,68.1,60.3,29.71,SSE,157,0.0,5.0,76,0.00,FEW,FEW,0.00,580.0,WeatherDisplay:10.37,2013-10-01 08:30:00,
2013-10-01 11:00:00,69.2,59.4,29.72,SSE,159,5.0,8.0,71,0.00,FEW,FEW,0.00,687.0,WeatherDisplay:10.37,2013-10-01 09:00:00,
2013-10-01 11:30:00,69.7,59.1,29.72,South,171,2.0,8.0,69,0.00,FEW,FEW,0.00,670.0,WeatherDisplay:10.37,2013-10-01 09:30:00,
2013-10-01 12:00:00,70.5,59.4,29.72,SSE,165,0.0,8.0,68,0.00,FEW,FEW,0.00,710.0,WeatherDisplay:10.37,2013-10-01 10:00:00,
2013-10-01 12:30:00,71.4,59.4,29.72,SSE,165,0.0,6.0,66,0.00,CLR,FEW,0.00,759.0,WeatherDisplay:10.37,2013-10-01 10:30:00,
2013-10-01 13:00:00,71.5,59.1,29.72,SSE,157,1.0,5.0,65,0.00,CLR,FEW,0.00,765.0,WeatherDisplay:10.37,2013-10-01 11:00:00,
2013-10-01 13:30:00,72.1,60.1,29.71,WSW,250,1.0,6.0,66,0.00,CLR,FEW,0.00,758.0,WeatherDisplay:10.37,2013-10-01 11:30:00,
2013-10-01 14:00:00,73.0,60.5,29.70,WNW,299,2.0,8.0,65,0.00,CLR,FEW,0.00,733.0,WeatherDisplay:10.37,2013-10-01 12:00:00,
2013-10-01 14:30:00,73.9,59.6,29.70,WNW,297,1.0,5.0,61,0.00,CLR,FEW,0.00,729.0,WeatherDisplay:10.37,2013-10-01 12:30:00,
2013-10-01 15:00:00,74.3,59.5,29.70,WNW,292,1.0,5.0,60,0.00,CLR,FEW,0.00,707.0,WeatherDisplay:10.37,2013-10-01 13:00:00,
2013-10-01 15:30:00,71.9,59.0,29.71,NW,313,0.0,4.0,64,0.00,OVC,FEW,0.00,88.0,WeatherDisplay:10.37,2013-10-01 13:30:00,
2013-10-01 16:00:00,69.8,59.6,29.71,NW,313,0.0,3.0,70,0.00,SCT,FEW,0.00,162.0,WeatherDisplay:10.37,2013-10-01 14:00:00,
2013-10-01 16:30:00,69.7,59.9,29.71,NW,313,0.0,1.0,71,0.00,SCT,FEW,0.00,121.0,WeatherDisplay:10.37,2013-10-01 14:30:00,
2013-10-01 17:00:00,70.0,60.2,29.71,NW,311,0.0,3.0,71,0.00,SCT,FEW,0.00,62.0,WeatherDisplay:10.37,2013-10-01 15:00:00,
2013-10-01 17:30:00,69.3,60.7,29.72,NW,311,0.0,1.0,74,0.00,CLR,FEW,0.00,114.0,WeatherDisplay:10.37,2013-10-01 15:30:00,
2013-10-01 18:00:00,69.3,61.0,29.72,WNW,282,0.0,4.0,75,0.00,OVC,FEW,0.00,84.0,WeatherDisplay:10.37,2013-10-01 16:00:00,
2013-10-01 19:30:00,64.8,58.8,29.75,SE,124,2.0,8.0,81,0.00,CLR,FEW,0.00,0.0,WeatherDisplay:10.37,2013-10-01 17:30:00,
2013-10-01 20:00:00,63.3,58.4,29.76,East,98,1.0,7.0,84,0.00,CLR,FEW,0.00,0.0,WeatherDisplay:10.37,2013-10-01 18:00:00,
2013-10-01 20:30:00,63.0,57.8,29.78,ESE,119,1.0,8.0,83,0.00,CLR,FEW,0.00,0.0,WeatherDisplay:10.37,2013-10-01 18:30:00,
2013-10-01 21:00:00,62.8,57.6,29.78,ESE,105,1.0,8.0,83,0.00,CLR,FEW,0.00,0.0,WeatherDisplay:10.37,2013-10-01 19:00:00,
2013-10-01 21:30:00,62.1,57.3,29.79,ESE,107,1.0,7.0,84,0.00,CLR,FEW,0.00,0.0,WeatherDisplay:10.37,2013-10-01 19:30:00,
2013-10-01 22:00:00,61.9,57.3,29.79,ESE,111,2.0,8.0,85,0.00,CLR,FEW,0.00,0.0,WeatherDisplay:10.37,2013-10-01 20:00:00,
2013-10-01 22:30:00,62.0,57.1,29.79,ESE,116,1.0,8.0,84,0.00,CLR,FEW,0.00,0.0,WeatherDisplay:10.37,2013-10-01 20:30:00,
2013-10-01 23:00:00,62.0,57.1,29.79,SE,129,2.0,9.0,84,0.00,CLR,FEW,0.00,0.0,WeatherDisplay:10.37,2013-10-01 21:00:00,
2013-10-01 23:30:00,61.8,56.9,29.80,ESE,113,1.0,8.0,84,0.00,CLR,FEW,0.00,0.0,WeatherDisplay:10.37,2013-10-01 21:30:00,